This demonstration page uses our WeatherBlox Daily Observations layout. Learn more.

Left ArrowRight Arrow

36.17497, -115.13722

Hourly Observations for December 2, 2021

Temp ( °F °C ) Dew Point ( °F °C ) Humidity (%) Winds ( mph kmh ) Pressure ( in mb ) Visibility ( mi km ) Precip ( " mm )
12:53 am 00:53 Clear 55 12.8 23 -5 29 29 W 6 9 30.18 1022 10 16 0.00 0.00
1:53 am 01:53 Clear 51 10.6 21 -6.1 31 31 NW 7 11 30.19 1022 10 16 0.00 0.00
2:53 am 02:53 Clear 51 10.6 20 -6.7 29 29 WNW 8 13 30.17 1022 10 16 0.00 0.00
3:53 am 03:53 Clear 52 11.1 20 -6.7 28 28 WNW 3 6 30.17 1022 10 16 0.00 0.00
4:53 am 04:53 Clear 48 8.9 21 -6.1 34 34 WSW 3 6 30.18 1022 10 16 0.00 0.00
5:53 am 05:53 Clear 48 8.9 21 -6.1 34 34 WNW 3 6 30.21 1023 10 16 0.00 0.00
6:53 am 06:53 Sunny 50 10 22 -5.6 33 33 WNW 3 6 30.22 1023 10 16 0.00 0.00
7:53 am 07:53 Sunny 54 12.2 24 -4.4 31 31 Calm 30.23 1024 10 16 0.00 0.00
8:53 am 08:53 Sunny 59 15 24 -4.4 26 26 Calm 30.23 1024 10 16 0.00 0.00
9:53 am 09:53 Sunny 65 18.3 22 -5.6 19 19 N 3 6 30.22 1023 10 16 0.00 0.00
10:53 am 10:53 Sunny 67 19.4 23 -5 19 19 Calm 30.19 1022 10 16 0.00 0.00
11:53 am 11:53 Sunny 68 20 23 -5 18 18 Calm 30.16 1022 10 16 0.00 0.00
12:53 pm 12:53 Sunny 70 21.1 25 -3.9 18 18 ESE 6 9 30.13 1020 10 16 0.00 0.00
1:53 pm 13:53 Sunny 70 21.1 26 -3.3 19 19 Calm 30.11 1020 10 16 0.00 0.00
2:53 pm 14:53 Sunny 71 21.7 25 -3.9 18 18 Calm 30.10 1019 10 16 0.00 0.00
3:53 pm 15:53 Sunny 69 20.6 24 -4.4 18 18 E 5 7 30.10 1019 10 16 0.00 0.00
4:53 pm 16:53 Clear 67 19.4 25 -3.9 20 20 Calm 30.11 1020 10 16 0.00 0.00
5:53 pm 17:53 Clear 63 17.2 27 -2.8 26 26 NNW 5 7 30.12 1020 10 16 0.00 0.00
6:53 pm 18:53 Clear 62 16.7 28 -2.2 28 28 W 3 6 30.13 1020 10 16 0.00 0.00
7:53 pm 19:53 Clear 60 15.6 29 -1.7 31 31 NW 5 7 30.14 1021 10 16 0.00 0.00
8:53 pm 20:53 Clear 58 14.4 28 -2.2 32 32 WNW 7 11 30.14 1021 10 16 0.00 0.00
9:53 pm 21:53 Clear 58 14.4 29 -1.7 33 33 WNW 3 6 30.13 1020 10 16 0.00 0.00
10:53 pm 22:53 Clear 56 13.3 29 -1.7 36 36 Calm 30.14 1021 10 16 0.00 0.00
11:53 pm 23:53 Clear 55 12.8 29 -1.7 37 37 Calm 30.12 1020 10 16 0.00 0.00

Powered by AerisWeather